Temp
37 36 36 38 39 39 38 37 37 38 39 38 37 37 39 40 40 38 38 38 37 36 36 35 34 33 33 31 28 28 27 25 25 23 23 22 22 23 23 23 23 23 22 23
37 36 38 39 39 38 37 37 37 38 39 38 37 38 39 40 40 39 39 38 38 37 35 35 34 32 33 31 30 29 28 26 25 24 24 24 23 23 24 23 22 21 21 23
37 38 40 38 38 37 37 37 37 37 38 38 38 38 39 40 39 40 40 40 40 39 37 35 34 34 32 31 30 28 28 27 27 27 25 24 24 23 21 22 23 22 22 23
38 39 38 38 37 37 36 39 38 37 36 35 38 35 37 38 39 39 40 40 40 39 39 36 35 34 32 31 30 28 28 27 26 26 25 25 24 22 21 22 22 21 21 23
37 38 37 37 37 38 37 39 38 37 36 36 37 37 38 39 38 39 40 39 40 40 39 37 35 34 33 31 31 28 27 27 27 26 25 24 24 23 23 22 22 21 22 24
37 39 38 37 38 38 38 37 37 37 36 35 37 38 38 38 38 39 39 39 39 40 39 38 36 34 33 33 31 29 27 26 26 25 25 24 23 23 23 22 22 22 23 24
37 38 39 39 37 38 38 37 35 35 35 34 34 37 38 40 40 39 39 39 39 39 39 38 37 35 34 32 31 29 27 25 25 25 24 24 24 23 23 22 22 22 23 25
37 36 38 39 37 37 37 38 36 34 35 36 37 36 38 40 40 40 40 40 39 39 39 38 37 36 34 33 32 30 27 26 26 25 25 25 24 23 21 22 22 23 25 25
36 37 39 39 39 38 37 37 39 37 38 37 38 37 38 38 39 39 39 39 39 39 39 38 37 36 35 34 32 31 28 26 26 26 25 25 24 23 21 22 23 24 26 26
36 35 38 39 39 38 37 38 36 37 34 34 36 36 33 34 37 38 37 37 37 38 38 38 38 37 36 34 32 31 28 26 26 26 25 25 24 23 23 21 22 24 26 26
36 36 36 37 37 37 37 36 37 37 36 35 35 35 38 36 37 37 36 36 36 36 37 38 38 36 35 34 33 31 28 27 27 27 26 25 24 24 23 23 23 25 25 26
36 35 34 35 37 38 38 37 37 35 34 36 35 35 35 36 34 36 35 34 34 35 35 37 38 37 35 33 32 31 30 28 27 27 26 26 25 25 24 23 24 25 25 25
34 34 33 34 36 38 36 37 37 37 37 35 35 36 35 35 35 32 30 33 34 33 34 35 36 37 35 33 33 32 29 28 27 27 26 26 25 25 25 24 24 25 25 24
31 33 32 31 33 34 34 35 36 35 34 34 34 36 34 30 29 27 28 31 33 33 32 33 33 34 35 34 32 32 30 28 27 27 27 26 25 25 26 25 25 25 25 25
32 30 32 33 33 34 34 34 34 34 34 33 34 34 35 32 28 25 28 30 32 31 31 31 32 32 32 33 32 31 31 29 28 28 27 26 26 25 25 26 25 25 25 24
33 30 31 31 32 33 32 33 34 34 34 34 34 34 36 36 30 24 22 30 30 30 30 30 31 31 31 32 32 31 30 30 29 28 27 26 26 25 25 25 25 25 25 24
32 31 30 29 31 31 30 32 33 34 34 34 33 34 33 32 31 31 31 30 29 29 29 29 29 30 31 31 32 31 30 29 28 27 27 26 25 25 25 25 25 24 24 24
31 30 30 29 29 27 31 34 34 33 32 33 33 31 31 30 31 31 31 29 28 28 28 29 29 29 29 30 30 30 30 29 29 27 26 26 25 25 24 24 24 24 24 24
32 30 29 28 28 30 31 32 31 30 31 31 30 29 30 30 29 29 28 28 29 29 29 28 28 28 28 28 29 30 30 28 28 27 26 26 25 24 24 24 24 24 24 24
31 30 29 28 27 27 30 30 31 30 28 28 28 28 27 27 26 26 27 28 28 28 28 28 28 28 28 28 28 29 29 29 27 27 27 26 25 24 24 24 24 24 24 24
29 29 28 28 28 29 28 29 30 26 25 27 27 26 26 25 26 26 27 27 27 27 28 28 27 27 28 27 27 25 29 28 28 27 27 26 25 24 24 24 24 24 24 24
27 27 27 28 26 25 26 25 24 25 26 26 26 26 25 25 26 26 26 26 27 27 27 27 27 27 27 27 27 25 25 28 28 27 26 26 25 25 24 24 24 24 24 24
26 28 26 26 26 27 27 25 26 25 24 24 23 25 25 25 25 25 26 25 26 26 26 27 27 27 26 27 26 25 24 25 27 26 26 26 25 24 25 24 24 24 23 24
28 27 25 24 26 26 25 25 25 24 24 24 24 24 24 24 24 24 25 25 25 26 26 26 27 26 26 26 25 25 25 23 23 26 25 25 25 24 25 24 24 23 23 23
25 25 23 23 24 22 23 23 23 22 21 22 23 23 23 22 23 23 23 23 24 25 25 26 26 26 25 25 25 23 22 22 23 25 25 25 24 24 24 24 24 23 23 23
23 21 21 20 21 20 20 21 22 21 21 22 21 21 21 21 20 22 21 22 23 24 24 25 25 25 24 24 24 20 19 19 21 24 24 24 24 24 24 24 21 23 24 23
Height
741 757 760 741 729 731 743 752 753 738 723 736 738 734 718 707 707 712 714 716 715 720 723 731 741 749 756 763 769 773 781 789 790 794 799 801 801 803 804 808 816 817 821 820
751 759 735 730 730 737 747 754 753 735 721 732 734 729 710 701 703 704 705 709 709 712 718 729 737 744 752 759 764 771 777 785 788 792 795 798 799 800 803 808 813 802 819 821
753 738 722 736 740 746 745 751 749 748 731 727 726 731 714 697 700 700 698 695 697 702 713 722 732 739 747 756 764 769 775 780 784 789 791 795 799 800 802 803 807 814 817 816
740 724 734 739 746 743 758 727 730 741 749 767 726 765 721 711 709 702 696 693 691 696 702 714 723 736 744 750 759 765 772 778 782 787 792 793 794 797 800 802 803 805 812 815
749 735 742 748 744 732 747 725 733 740 749 748 737 742 725 707 718 710 699 697 692 689 695 707 718 729 739 747 752 761 767 774 779 783 788 791 792 794 797 801 804 806 810 813
737 718 728 735 727 726 726 738 737 735 744 769 735 734 726 723 713 707 696 697 695 691 693 701 711 724 734 742 749 755 763 770 776 780 784 787 790 792 794 799 802 805 807 809
735 730 718 720 741 726 733 747 773 770 767 773 751 739 724 701 697 698 699 693 693 693 695 702 708 720 727 736 744 752 760 767 774 777 782 784 786 789 793 797 800 802 804 804
749 753 722 711 731 741 735 736 761 786 771 752 724 747 723 692 688 690 688 688 692 695 695 701 707 715 723 732 739 747 755 762 770 775 777 781 785 788 787 797 798 799 800 802
750 744 710 716 717 725 738 746 717 742 732 746 728 720 711 703 699 697 696 694 696 694 694 701 707 714 722 729 736 743 752 759 765 771 775 779 782 786 788 794 795 794 798 802
740 761 723 715 712 718 731 719 751 737 774 779 743 744 760 737 722 707 708 709 704 697 696 697 704 711 718 727 736 743 749 756 762 768 772 776 780 783 787 787 791 793 797 800
736 746 746 725 730 733 728 737 734 732 741 764 765 751 710 722 713 712 711 715 713 707 702 698 702 709 717 725 733 741 747 753 760 764 768 772 776 780 783 784 788 793 797 798
734 747 761 746 718 709 715 724 725 750 760 740 750 752 707 712 719 709 716 720 720 717 710 702 700 706 715 724 731 737 744 749 757 762 765 769 773 776 779 782 787 794 795 796
747 754 768 758 734 710 731 718 719 720 725 747 757 744 707 714 716 727 736 725 726 723 718 712 706 703 711 719 727 734 740 745 752 758 762 766 770 772 775 779 784 790 793 796
751 760 769 780 762 740 749 735 728 735 748 749 747 728 722 740 747 748 743 731 729 728 725 723 717 714 711 717 723 730 737 742 748 753 758 762 766 769 771 775 779 785 789 793
754 775 763 754 747 743 742 741 737 743 739 753 740 733 722 728 741 746 730 736 731 732 731 728 727 723 721 718 723 727 733 740 744 749 754 758 762 767 769 771 775 779 783 788
743 768 760 765 750 746 750 740 736 735 733 732 731 734 711 707 722 745 752 732 736 738 737 734 729 727 723 722 721 727 731 736 740 744 751 756 758 763 767 768 771 774 777 780
754 759 768 776 756 754 764 745 734 728 724 729 741 726 718 724 728 731 732 736 742 741 740 738 734 730 727 724 721 722 728 734 736 740 746 752 756 759 762 765 767 769 773 777
754 760 763 774 767 789 745 721 719 729 729 727 725 728 729 732 730 730 730 737 742 741 739 737 734 734 731 726 722 725 720 725 732 736 742 747 751 756 760 763 765 767 771 773
738 753 767 777 773 755 744 729 736 743 741 732 738 737 736 736 736 738 739 739 736 736 737 737 735 733 731 727 721 717 718 719 725 731 736 741 745 751 755 758 763 766 768 771
742 748 764 767 780 784 748 737 733 735 761 744 745 748 750 748 759 753 744 742 740 738 737 737 736 733 728 725 722 715 716 717 720 724 730 735 740 744 746 746 749 757 763 765
756 756 766 762 767 755 750 741 734 772 774 752 751 752 755 759 755 747 744 742 742 740 737 735 735 731 727 724 722 717 714 715 714 720 724 729 733 736 738 743 747 750 757 761
767 770 766 759 768 780 759 761 775 761 753 752 752 752 753 752 750 747 745 743 741 740 736 733 731 730 727 723 721 719 711 711 712 714 718 721 725 729 733 736 741 746 751 754
769 755 766 765 763 749 752 758 756 755 759 759 759 753 748 746 746 745 743 741 738 738 734 731 727 726 724 720 717 714 712 711 713 711 711 714 718 722 726 730 734 739 743 747
751 751 765 767 756 754 754 757 758 758 757 754 754 752 750 747 744 743 739 735 734 732 729 726 723 721 721 718 716 714 712 711 711 710 712 714 716 719 721 725 729 733 737 742
762 760 769 768 761 765 759 759 761 761 760 755 752 749 747 747 744 743 740 735 731 728 726 722 719 716 717 715 713 711 710 707 704 704 704 706 710 713 716 721 724 728 731 734
769 778 783 779 775 776 769 764 760 757 754 750 748 746 745 745 743 739 738 733 728 722 719 716 713 711 712 711 708 707 706 704 699 698 697 698 702 707 711 717 716 721 728 733
Wind_Speed
14 12 12 14 12 10 10 11 11 10 6 6 12 14 14 8 10 13 10 9 15 16 19 26 22 20 17 24 32 25 30 21 26 18 17 17 22 21 18 13 9 12 13 15
12 15 13 10 16 8 11 12 13 12 5 9 16 18 15 12 5 6 12 13 10 19 16 18 22 27 19 23 25 23 19 28 23 19 19 17 18 25 23 17 11 11 13 14
15 14 5 7 12 14 10 13 12 14 10 14 19 13 11 6 9 5 7 9 12 13 19 18 20 24 23 23 21 24 21 22 20 16 21 19 10 14 17 20 16 19 14 13
12 13 12 12 11 10 14 13 11 11 12 12 14 13 15 14 4 12 11 3 12 12 15 19 22 23 24 28 27 27 24 21 20 19 17 19 19 12 15 20 20 16 21 17
14 9 9 11 13 11 13 13 11 9 13 17 19 10 13 12 9 5 5 6 5 8 15 20 19 27 28 27 28 28 27 23 20 19 15 12 14 18 14 19 25 24 21 20
12 14 7 9 12 8 7 12 13 15 14 13 11 12 1 6 5 5 3 10 2 2 12 12 27 28 27 26 28 27 28 25 22 18 16 14 15 16 19 18 27 25 23 20
17 20 17 12 11 12 10 12 10 12 9 9 3 12 6 8 10 2 2 9 8 3 10 11 15 21 25 27 28 28 28 24 22 20 16 14 13 12 17 20 26 24 24 21
11 10 17 15 9 12 11 13 9 14 14 8 14 7 5 2 8 3 3 9 7 4 10 11 12 13 20 27 27 27 29 25 22 19 17 13 11 13 19 22 23 27 24 22
10 9 10 5 8 5 12 14 12 13 15 13 10 13 18 20 8 4 12 12 8 4 9 10 12 17 22 19 24 24 28 25 22 20 17 14 14 17 21 21 27 29 22 21
11 14 12 15 11 9 14 14 13 9 10 13 11 10 9 8 4 7 14 9 11 1 1 11 12 14 17 20 21 22 27 24 22 20 19 16 16 15 21 26 29 25 17 21
12 13 16 16 14 11 13 14 15 11 10 10 12 3 9 15 5 6 15 12 13 12 9 4 8 15 16 18 19 21 25 23 22 21 20 18 19 19 18 26 27 16 16 22
12 14 12 17 22 21 18 19 12 12 12 11 9 11 10 9 20 15 16 14 12 13 17 11 7 15 18 17 20 23 22 24 21 21 19 19 20 21 19 21 26 16 13 13
10 8 9 12 14 19 17 12 14 14 15 16 15 12 12 3 15 16 17 11 11 11 12 14 13 7 15 19 17 21 26 26 25 23 23 20 21 22 22 20 21 20 15 16
4 12 15 13 18 21 17 18 13 13 15 9 16 17 10 14 13 15 12 9 8 9 11 11 13 13 7 14 19 16 25 27 27 25 25 22 22 22 21 24 23 24 21 20
4 13 16 17 18 20 21 19 18 18 19 19 21 23 18 3 16 9 7 10 5 9 10 11 11 11 14 7 14 18 16 27 29 25 24 24 24 22 22 20 21 23 21 21
9 12 14 17 18 18 20 21 21 21 21 22 21 21 18 17 12 7 9 6 5 7 9 11 11 9 10 11 13 14 17 15 25 25 22 24 27 25 25 20 24 21 20 19
13 12 13 17 18 20 17 18 17 20 14 14 16 10 13 12 14 12 9 9 5 6 7 9 11 13 11 16 10 18 18 22 22 26 25 25 25 25 26 24 24 24 21 21
14 13 11 14 15 20 17 16 15 9 10 14 12 15 14 14 13 14 10 8 5 6 9 9 10 13 19 18 20 13 23 24 21 25 26 27 28 26 26 26 25 24 23 23
12 10 11 12 14 19 21 16 11 11 4 13 9 12 11 12 13 9 13 12 11 8 8 12 17 17 17 20 23 14 18 25 25 23 27 29 28 27 28 26 24 24 24 23
5 8 9 12 16 19 19 9 4 9 8 10 9 9 11 12 7 5 12 14 12 14 13 14 18 22 17 16 26 16 10 18 24 25 26 29 29 30 31 33 33 29 26 25
8 7 11 11 14 14 16 15 8 8 5 7 7 7 10 10 10 16 17 15 16 19 18 16 16 20 17 17 21 21 10 19 19 25 26 29 31 33 32 28 28 28 26 23
13 11 12 12 14 11 8 15 12 11 13 15 12 11 12 14 15 15 16 15 14 14 20 20 15 16 23 16 16 18 18 15 22 25 26 29 32 33 31 30 28 28 28 23
7 8 7 7 10 13 13 10 16 16 13 14 16 17 17 16 16 18 16 16 14 16 20 23 15 15 21 18 15 17 19 19 21 24 28 29 31 33 31 32 29 27 27 28
8 3 6 12 13 15 17 16 16 18 17 14 15 17 19 20 18 20 17 13 13 17 19 20 17 14 17 18 14 20 16 20 24 24 26 28 29 31 31 28 27 23 23 21
6 11 12 13 12 17 13 15 16 19 20 18 17 20 18 20 19 19 17 17 17 17 23 21 19 11 16 19 17 12 16 23 20 20 27 28 29 31 29 28 25 25 24 25
7 7 5 7 14 15 19 21 25 23 20 21 17 17 16 15 16 15 15 22 24 21 23 19 21 11 17 21 13 8 12 12 12 20 24 25 26 27 28 27 20 24 22 28
Wind_Direction
233 243 245 264 282 356 343 305 295 303 321 305 309 286 282 277 263 197 198 240 194 196 189 172 180 175 182 161 167 169 182 194 178 177 183 199 212 216 213 197 185 187 201 203
245 249 252 266 293 315 300 294 287 281 288 328 294 286 271 264 199 269 197 200 233 190 164 166 176 166 182 168 162 166 158 176 177 177 194 200 207 226 227 221 199 190 213 208
261 264 304 295 297 299 271 256 282 285 333 285 282 305 294 246 140 216 250 226 214 206 176 169 172 175 174 159 165 164 177 172 184 203 196 190 200 223 219 227 225 229 226 206
259 273 268 287 263 267 281 289 321 327 300 297 311 287 278 129 217 197 236 210 206 189 177 172 173 175 180 169 169 170 174 179 187 210 196 191 189 191 202 209 205 224 220 204
274 235 243 253 262 285 276 295 287 278 282 283 279 268 148 156 154 24 24 90 301 177 176 175 170 178 186 173 174 168 171 183 194 203 207 210 222 218 202 195 199 208 209 202
259 284 245 272 307 284 306 297 288 273 262 268 287 275 32 120 146 78 136 86 351 92 158 176 169 169 178 187 170 168 169 178 194 197 207 205 220 215 201 195 190 199 204 196
240 232 231 224 253 251 237 252 269 271 209 268 268 301 25 86 95 84 54 140 131 148 151 164 167 170 178 167 179 161 168 171 188 190 201 208 218 210 194 194 190 199 194 195
286 309 196 189 211 284 292 273 259 294 306 320 180 230 176 85 86 106 95 92 101 157 139 166 176 169 163 173 177 163 167 172 185 193 202 208 208 176 182 188 199 206 191 198
320 339 140 160 251 256 287 278 279 280 280 277 281 52 12 9 132 67 74 36 124 161 151 167 171 177 166 179 165 164 166 170 180 201 196 198 196 180 173 202 209 218 209 190
302 300 307 304 174 224 257 285 304 297 286 284 295 305 144 226 58 46 77 37 11 39 232 160 172 171 177 172 167 171 164 170 183 199 188 192 189 184 180 185 209 227 191 182
305 298 293 296 282 250 272 221 250 278 289 288 291 60 207 194 227 136 86 52 24 8 348 173 172 153 159 166 179 180 168 173 189 198 188 189 184 185 189 192 204 216 182 172
306 317 295 300 310 307 300 293 255 242 253 269 295 294 106 103 14 63 76 48 32 3 1 333 170 161 159 168 183 185 180 175 186 198 186 189 184 185 189 201 194 198 175 186
356 289 303 301 296 253 338 265 291 286 271 264 279 280 91 85 76 41 12 43 20 6 14 1 348 166 162 169 183 186 180 174 182 193 190 193 191 189 190 197 203 197 196 180
315 281 280 279 294 309 304 304 284 284 292 277 279 296 24 95 52 26 351 338 14 20 9 12 348 357 156 173 176 192 179 179 184 193 191 193 191 198 200 195 201 198 198 199
240 265 273 282 294 296 297 297 296 290 287 286 295 299 307 87 139 178 186 281 26 27 9 8 359 347 341 163 171 186 196 185 185 190 193 191 189 197 205 201 200 200 198 200
245 266 274 275 276 275 278 277 275 273 271 273 276 279 292 302 144 116 209 86 28 30 6 355 350 340 332 317 180 188 200 222 188 182 192 189 188 194 200 205 202 205 202 202
283 285 296 288 303 302 287 280 272 278 296 309 281 306 23 12 31 29 31 85 41 25 2 352 340 332 344 312 270 194 198 211 193 184 189 195 191 192 195 199 200 201 204 205
272 270 274 277 283 272 278 291 283 293 306 311 329 17 25 11 7 5 23 70 19 11 355 342 335 337 324 322 304 305 196 195 213 192 192 194 193 195 197 199 201 199 203 203
243 263 272 276 272 280 280 281 11 1 316 33 9 1 355 359 351 50 29 6 350 349 339 332 324 329 317 304 309 279 229 187 195 200 195 199 191 192 195 197 205 205 203 207
248 278 269 273 284 284 300 62 329 330 264 38 21 9 359 351 310 90 352 341 334 328 328 327 325 311 318 333 322 308 217 195 194 199 201 197 194 193 198 199 195 202 205 203
274 253 255 261 266 263 23 6 339 248 9 360 345 343 326 310 307 313 315 311 318 316 317 317 308 312 315 332 326 316 277 209 207 203 200 200 199 196 201 201 198 200 205 204
285 278 285 297 294 287 29 350 335 349 338 333 323 307 303 299 297 296 301 304 304 305 304 302 301 309 307 318 312 319 320 257 217 206 203 203 202 198 199 202 201 200 198 199
271 279 311 303 301 324 335 347 335 330 330 334 325 312 302 297 291 287 288 289 287 283 287 288 287 300 302 305 328 312 318 309 236 218 212 210 206 197 201 199 199 198 198 192
310 65 276 306 295 317 320 330 327 337 319 313 300 298 306 303 309 309 307 298 290 294 288 288 286 288 296 306 314 304 303 318 311 239 228 223 211 208 205 203 198 188 185 186
348 329 346 296 297 338 309 322 320 317 313 311 294 295 291 294 290 292 295 302 301 284 284 273 279 278 288 294 296 323 317 307 286 246 232 221 211 209 204 200 192 197 197 195
360 6 326 309 321 305 297 305 302 299 291 285 286 294 301 284 301 282 283 282 287 282 273 272 277 275 284 281 285 326 322 322 300 242 228 220 213 204 200 198 188 193 188 198